"startDT [UTC]","vpos","CH4 [ppm]","stdev(CH4) [ppm]","CO2 [ppm]","stdev(CO2) [ppm]","H2O_reported [%]","stdev(H2O_reported)","CavityPressure [torr]","CavityTemp [C]","OutletValve","CH4_dry [ppm]","CO2_dry [ppm]","DasTemp [C]","EtalonTemp [C]","WarmBoxTemp [C]","MPVPosition","T_ECpre [C]","T_EC1 [C]","T_EC2 [C]","p_inlet [hPa]","p_in [hPa]","p_out [hPa]","T_inlet [C]","RH_inlet [%]","dwpt_inlet [C]","T_vent [C]","RH_vent [%]","dwpt_vent [C]","flow_vent [l min-1]","flow_inlet [l min-1]","dwpt_sample [C]","T_room [C]"
2013-09-28 00:00:00,3.0,1.87491,0.00504,395.703,4.060,0.1531,0.2265,139.895,45.000,30986.56229,1.87996,396.085,33.370,45.056,45.000,0.00,0.12,-272.56,-272.63,-24,432,-7,24.4,14.5,-4.4,24.4,14.8,-4.1,5.73,2.60,1.3,27.3
2013-09-28 00:01:00,3.0,1.87508,0.00020,397.254,0.037,0.0227,0.0014,140.003,45.000,30870.33344,1.87547,397.377,33.344,45.056,45.000,0.00,0.12,-272.56,-272.63,-24,433,-7,24.4,14.5,-4.3,24.4,14.8,-4.0,5.73,2.56,1.3,27.3
2013-09-28 00:02:00,3.0,1.87549,0.00024,397.221,0.033,0.0201,0.0010,140.000,45.000,30853.86964,1.87581,397.319,33.352,45.056,45.000,0.00,0.12,-272.56,-272.63,-24,433,-7,24.3,14.5,-4.4,24.4,14.8,-4.1,5.73,2.47,1.3,27.4
2013-09-28 00:03:00,3.0,1.87555,0.00033,397.329,0.076,0.0185,0.0019,140.001,45.000,30841.90691,1.87586,397.402,33.322,45.056,45.000,0.00,0.12,-272.56,-272.63,-24,433,-7,24.4,14.4,-4.4,24.4,14.8,-4.1,5.73,2.51,1.4,27.5
2013-09-28 00:04:00,3.0,1.87601,0.00022,397.514,0.016,0.0147,0.0015,139.997,45.000,30827.67288,1.87624,397.581,33.325,45.056,45.000,0.00,0.12,-272.57,-272.63,-24,433,-7,24.4,14.4,-4.5,24.4,14.8,-4.1,5.73,2.61,1.3,27.5
2013-09-28 00:05:00,3.0,1.87624,0.00027,397.578,0.029,0.0120,0.0025,140.001,45.000,30818.40825,1.87648,397.636,33.313,45.056,45.000,0.00,0.12,-272.56,-272.63,-24,433,-7,24.4,14.5,-4.4,24.4,14.8,-4.1,5.73,2.56,1.4,27.4
2013-09-28 00:06:00,3.0,1.87606,0.00028,397.632,0.028,0.0098,0.0023,140.000,45.000,30812.73277,1.87630,397.675,33.313,45.056,45.000,0.00,0.12,-272.56,-272.63,-24,433,-7,24.4,14.5,-4.4,24.4,14.8,-4.1,5.73,2.47,1.3,27.2
2013-09-28 00:07:00,3.0,1.87630,0.00041,397.668,0.028,0.0072,0.0025,140.001,45.000,30807.12577,1.87635,397.704,33.313,45.056,45.000,0.00,0.12,-272.56,-272.63,-24,433,-7,24.4,14.5,-4.4,24.4,14.9,-4.0,5.73,2.51,1.4,27.2
2013-09-28 00:08:00,3.0,1.87626,0.00025,397.683,0.042,0.0047,0.0017,139.998,45.000,30801.32245,1.87638,397.705,33.313,45.056,45.000,0.00,0.12,-272.56,-272.63,-24,434,-7,24.4,14.5,-4.4,24.4,14.9,-4.0,5.73,2.61,1.4,27.3
2013-09-28 00:09:00,3.0,1.87652,0.00032,397.689,0.024,0.0026,0.0014,140.001,45.000,30801.01365,1.87646,397.699,33.313,45.056,45.000,0.00,0.12,-272.56,-272.63,-24,434,-7,24.4,14.5,-4.4,24.4,14.9,-4.0,5.73,2.56,1.4,27.3
2013-09-28 00:10:00,3.0,1.87657,0.00029,397.701,0.027,0.0042,0.0020,139.997,45.000,30795.54305,1.87672,397.720,33.313,45.056,45.000,0.00,0.12,-272.56,-272.63,-24,434,-7,24.4,14.6,-4.3,24.4,14.9,-4.0,5.73,2.47,1.3,27.4
2013-09-28 00:11:00,3.0,1.87648,0.00049,397.695,0.040,0.0046,0.0013,140.000,45.000,30793.06864,1.87663,397.716,33.318,45.056,45.000,0.00,0.12,-272.56,-272.63,-24,434,-7,24.4,14.6,-4.2,24.4,15.0,-3.9,5.73,2.51,1.3,27.4
2013-09-28 00:12:00,3.0,1.87645,0.00039,397.712,0.043,0.0016,0.0017,139.999,45.000,30791.43139,1.87643,397.724,33.313,45.056,45.000,0.00,0.12,-272.56,-272.62,-24,435,-7,24.4,14.7,-4.2,24.4,15.1,-3.9,5.73,2.60,1.4,27.3
2013-09-28 00:13:00,3.0,1.87660,0.00024,397.706,0.036,0.0046,0.0016,140.004,45.000,30790.97096,1.87666,397.723,33.314,45.056,45.000,0.00,0.12,-272.56,-272.62,-24,435,-7,24.4,14.8,-4.1,24.4,15.1,-3.8,5.73,2.56,1.4,27.3
2013-09-28 00:14:00,3.0,1.87655,0.00027,397.693,0.023,0.0023,0.0012,139.997,45.000,30789.35224,1.87662,397.706,33.313,45.056,45.000,0.00,0.12,-272.56,-272.63,-24,435,-7,24.4,14.8,-4.0,24.4,15.2,-3.7,5.73,2.47,1.4,27.4
2013-09-28 00:15:00,3.0,1.87653,0.00021,397.692,0.020,0.0031,0.0021,140.001,45.000,30793.63704,1.87659,397.710,33.312,45.056,45.000,0.00,0.12,-272.56,-272.63,-24,435,-7,24.4,14.8,-4.1,24.5,15.2,-3.7,5.73,2.51,1.4,27.4
2013-09-28 00:16:00,3.0,1.87628,0.00034,397.660,0.035,0.0008,0.0021,140.005,45.000,30794.29414,1.87629,397.669,33.313,45.056,45.000,0.00,0.12,-272.56,-272.63,-24,436,-7,24.5,14.7,-4.1,24.5,15.1,-3.7,5.73,2.60,1.4,27.5
2013-09-28 00:17:00,3.0,1.87644,0.00041,397.676,0.017,0.0012,0.0017,139.996,45.000,30793.19278,1.87649,397.678,33.313,45.056,45.000,0.00,0.12,-272.56,-272.63,-24,436,-7,24.4,14.8,-4.1,24.5,15.1,-3.7,5.73,2.57,1.4,27.4
2013-09-28 00:18:00,3.0,1.87612,0.00027,397.687,0.028,0.0011,0.0007,140.003,45.000,30796.54497,1.87614,397.691,33.313,45.056,45.000,0.00,0.12,-272.56,-272.63,-24,436,-7,24.4,14.8,-4.1,24.5,15.2,-3.7,5.73,2.47,1.4,27.5
2013-09-28 00:19:00,3.0,1.87640,0.00031,397.700,0.013,0.0013,0.0030,140.002,45.000,30795.30268,1.87638,397.705,33.313,45.056,45.000,0.00,0.12,-272.56,-272.63,-24,436,-7,24.5,14.8,-4.1,24.5,15.2,-3.7,5.73,2.51,1.4,27.5
2013-09-28 00:20:00,0.0,1.89252,0.00873,390.872,4.242,0.4393,0.2356,140.157,45.000,31741.23912,1.89763,393.282,33.313,45.056,45.000,0.00,0.12,-272.56,-272.63,-24,582,-7,24.4,14.8,-4.1,24.4,15.2,-3.7,5.73,2.60,1.4,27.7
2013-09-28 00:21:00,0.0,1.89561,0.00046,387.649,0.041,0.5849,0.0018,140.003,45.000,31796.69636,1.90694,390.431,33.313,45.056,45.000,0.00,0.12,-272.56,-272.63,-24,582,-7,24.5,14.8,-4.1,24.5,15.1,-3.7,5.73,2.57,1.4,27.7
2013-09-28 00:22:00,0.0,1.89418,0.00071,387.487,0.080,0.5890,0.0014,140.004,45.000,31815.99233,1.90552,390.295,33.313,45.056,45.000,0.00,0.12,-272.56,-272.63,-24,582,-7,24.5,14.8,-4.1,24.5,15.1,-3.7,5.73,2.48,1.4,27.7
2013-09-28 00:23:00,0.0,1.89302,0.00058,387.320,0.053,0.5930,0.0024,140.001,45.000,31829.24198,1.90438,390.135,33.313,45.056,45.000,0.00,0.12,-272.56,-272.63,-24,582,-7,24.5,14.9,-4.0,24.5,15.2,-3.7,5.73,2.50,1.4,27.8
2013-09-28 00:24:00,0.0,1.89289,0.00029,387.300,0.048,0.5962,0.0023,140.000,45.000,31838.94777,1.90420,390.128,33.321,45.056,45.000,0.00,0.12,-272.56,-272.63,-24,582,-7,24.5,14.9,-3.9,24.5,15.3,-3.6,5.73,2.59,1.4,27.7
2013-09-28 00:25:00,0.0,1.89196,0.00068,387.249,0.016,0.5980,0.0015,140.003,45.000,31849.23088,1.90347,390.089,33.320,45.056,45.000,0.00,0.12,-272.56,-272.63,-24,582,-7,24.5,14.9,-3.9,24.4,15.3,-3.6,5.73,2.59,1.4,27.3
2013-09-28 00:26:00,0.0,1.89023,0.00047,387.014,0.103,0.5989,0.0011,139.997,45.000,31854.92951,1.90167,389.862,33.319,45.056,45.000,0.00,0.12,-272.56,-272.63,-24,583,-7,24.5,14.9,-3.9,24.5,15.3,-3.6,5.73,2.49,1.4,27.4
2013-09-28 00:27:00,0.0,1.88993,0.00045,386.967,0.120,0.5985,0.0012,140.004,45.000,31866.33813,1.90131,389.817,33.325,45.056,45.000,0.00,0.12,-272.56,-272.63,-24,583,-7,24.5,14.9,-3.9,24.5,15.3,-3.5,5.73,2.49,1.4,27.3
2013-09-28 00:28:00,0.0,1.88946,0.00044,386.633,0.172,0.6004,0.0020,140.005,45.000,31872.41817,1.90092,389.493,33.322,45.056,45.000,0.00,0.34,-270.55,-271.41,-24,582,-7,24.5,15.0,-3.9,24.5,15.3,-3.5,5.42,2.59,-2.2,27.4
2013-09-28 00:29:00,0.0,1.88925,0.00028,386.669,0.085,0.6014,0.0018,139.997,45.000,31877.37032,1.90057,389.504,33.318,45.056,45.000,0.00,0.12,-272.56,-272.62,-24,583,-7,24.5,15.0,-3.9,24.5,15.4,-3.5,5.73,2.60,1.4,27.3
2013-09-28 00:30:00,0.0,1.88955,0.00035,386.745,0.078,0.6027,0.0016,140.002,45.000,31878.96133,1.90101,389.605,33.313,45.056,45.000,0.00,0.12,-272.56,-272.63,-24,583,-7,24.5,15.0,-3.8,24.5,15.4,-3.5,5.73,2.51,1.4,27.3
2013-09-28 00:31:00,0.0,1.88913,0.00019,386.581,0.046,0.6034,0.0023,139.999,45.000,31882.20158,1.90058,389.440,33.313,45.056,45.000,0.00,0.12,-272.56,-272.63,-24,582,-7,24.5,15.0,-3.8,24.5,15.4,-3.5,5.73,2.48,1.4,27.3
2013-09-28 00:32:00,0.0,1.88865,0.00020,386.443,0.047,0.6036,0.0017,140.001,45.000,31887.24738,1.90012,389.310,33.324,45.056,45.000,0.00,0.12,-272.56,-272.62,-24,582,-7,24.5,15.0,-3.8,24.5,15.4,-3.5,5.73,2.56,1.4,27.3
2013-09-28 00:33:00,0.0,1.88847,0.00027,386.457,0.027,0.6029,0.0018,140.003,45.000,31888.87136,1.89988,389.312,33.336,45.056,45.000,0.00,0.12,-272.56,-272.63,-24,583,-7,24.5,15.0,-3.8,24.5,15.4,-3.5,5.73,2.60,1.4,27.3
2013-09-28 00:34:00,0.0,1.88875,0.00034,386.615,0.046,0.6054,0.0028,139.997,45.000,31891.52189,1.90021,389.472,33.367,45.056,45.000,0.00,0.12,-272.56,-272.63,-24,583,-7,24.5,15.0,-3.8,24.5,15.4,-3.5,5.73,2.54,1.4,27.3
2013-09-28 00:35:00,0.0,1.88814,0.00053,386.569,0.072,0.6049,0.0013,140.002,45.000,31897.77147,1.89966,389.438,33.375,45.056,45.000,0.00,0.12,-272.56,-272.63,-24,582,-7,24.5,15.0,-3.8,24.6,15.4,-3.4,5.73,2.48,1.4,27.3
2013-09-28 00:36:00,0.0,1.88849,0.00045,386.596,0.051,0.6069,0.0021,140.001,45.000,31897.69806,1.89994,389.463,33.380,45.056,45.000,0.00,0.12,-272.56,-272.63,-24,583,-7,24.5,15.1,-3.8,24.5,15.4,-3.4,5.73,2.52,1.4,27.3
2013-09-28 00:37:00,0.0,1.88851,0.00022,386.674,0.029,0.6063,0.0010,139.997,45.000,31896.81131,1.90000,389.549,33.400,45.056,45.000,0.00,0.12,-272.56,-272.63,-24,583,-7,24.5,15.0,-3.8,24.6,15.5,-3.4,5.73,2.59,1.4,27.3
2013-09-28 00:38:00,0.0,1.88840,0.00021,386.673,0.049,0.6063,0.0012,139.999,45.000,31900.87332,1.89988,389.542,33.430,45.056,45.000,0.00,0.12,-272.56,-272.63,-24,583,-7,24.6,15.0,-3.8,24.5,15.5,-3.4,5.73,2.59,1.4,27.1
2013-09-28 00:39:00,0.0,1.88864,0.00031,386.649,0.031,0.6044,0.0013,140.005,45.000,31903.36289,1.90003,389.514,33.438,45.056,45.000,0.00,0.12,-272.55,-272.63,-24,582,-7,24.6,15.0,-3.8,24.5,15.4,-3.5,5.73,2.51,1.4,27.1
2013-09-28 00:40:00,0.0,1.88876,0.00032,386.715,0.075,0.6039,0.0010,140.008,45.000,31904.24137,1.90027,389.581,33.451,45.056,45.000,0.00,0.12,-272.56,-272.63,-24,583,-7,24.6,15.0,-3.8,24.6,15.4,-3.5,5.73,2.48,1.4,27.2
2013-09-28 00:41:00,0.0,1.88885,0.00032,386.709,0.061,0.6037,0.0018,140.001,45.000,31902.16298,1.90019,389.568,33.459,45.056,45.000,0.00,0.12,-272.56,-272.63,-24,583,-7,24.6,15.0,-3.8,24.6,15.4,-3.4,5.73,2.54,1.4,27.1
2013-09-28 00:42:00,0.0,1.88915,0.00023,386.728,0.028,0.6064,0.0009,139.997,45.000,31904.14902,1.90060,389.592,33.482,45.056,45.000,0.00,0.12,-272.56,-272.63,-24,583,-7,24.6,15.0,-3.8,24.5,15.3,-3.5,5.73,2.60,1.4,27.1
2013-09-28 00:43:00,0.0,1.88931,0.00024,386.733,0.033,0.6095,0.0011,139.996,45.000,31903.68249,1.90088,389.620,33.488,45.056,45.000,0.00,0.12,-272.56,-272.63,-24,583,-7,24.6,15.1,-3.7,24.6,15.4,-3.4,5.73,2.58,1.4,27.1
2013-09-28 00:44:00,0.0,1.88912,0.00041,386.765,0.034,0.6123,0.0012,140.000,45.000,31904.88236,1.90075,389.667,33.498,45.056,45.000,0.00,0.12,-272.56,-272.63,-24,583,-7,24.5,15.1,-3.7,24.6,15.6,-3.3,5.73,2.50,1.4,27.1
2013-09-28 00:45:00,0.0,1.88878,0.00033,386.739,0.049,0.6161,0.0027,140.001,45.000,31904.07704,1.90051,389.653,33.500,45.056,45.000,0.00,0.12,-272.56,-272.63,-24,583,-7,24.6,15.2,-3.6,24.6,15.7,-3.2,5.73,2.49,1.4,27.0
2013-09-28 00:46:00,0.0,1.88836,0.00030,386.712,0.056,0.6237,0.0024,140.004,45.000,31907.64612,1.90017,389.679,33.508,45.056,45.000,0.00,0.12,-272.55,-272.63,-24,583,-7,24.6,15.4,-3.4,24.6,15.8,-3.1,5.73,2.55,1.4,27.0
2013-09-28 00:47:00,0.0,1.88791,0.00084,386.549,0.098,0.6283,0.0010,140.002,45.000,31910.06294,1.89986,389.536,33.540,45.056,45.000,0.00,0.12,-272.56,-272.63,-24,583,-7,24.6,15.5,-3.3,24.6,16.0,-2.9,5.73,2.60,1.4,26.9
2013-09-28 00:48:00,0.0,1.88821,0.00030,386.587,0.040,0.6257,0.0023,140.000,45.000,31909.41028,1.89998,389.545,33.544,45.056,45.000,0.00,0.12,-272.56,-272.62,-24,583,-7,24.6,15.5,-3.4,24.6,15.9,-3.0,5.73,2.56,1.4,26.9
2013-09-28 00:49:00,0.0,1.88793,0.00056,386.633,0.095,0.6298,0.0016,140.001,45.000,31912.33116,1.89999,389.619,33.557,45.056,45.000,0.00,0.12,-272.56,-272.63,-24,583,-7,24.6,15.5,-3.3,24.6,15.9,-3.0,5.73,2.50,1.4,26.9
2013-09-28 00:50:00,0.0,1.88767,0.00031,386.542,0.040,0.6282,0.0016,139.997,45.000,31912.01125,1.89950,389.524,33.563,45.056,45.000,0.00,0.12,-272.55,-272.63,-24,583,-7,24.6,15.5,-3.3,24.6,15.9,-2.9,5.73,2.49,1.4,27.0
2013-09-28 00:51:00,0.0,1.88778,0.00037,386.551,0.018,0.6217,0.0025,140.005,45.000,31915.01894,1.89949,389.499,33.577,45.056,45.000,0.00,0.12,-272.56,-272.63,-24,583,-7,24.6,15.3,-3.5,24.6,15.8,-3.1,5.73,2.55,1.4,26.9
2013-09-28 00:52:00,0.0,1.88868,0.00028,386.581,0.022,0.6142,0.0023,140.000,45.000,31914.78111,1.90026,389.489,33.609,45.056,45.000,0.00,0.12,-272.56,-272.63,-24,583,-7,24.6,15.1,-3.6,24.6,15.6,-3.3,5.73,2.59,1.4,26.9
2013-09-28 00:53:00,0.0,1.88830,0.00030,386.624,0.029,0.6146,0.0014,140.000,45.000,31915.98035,1.90004,389.534,33.624,45.056,45.000,0.00,0.12,-272.56,-272.63,-24,583,-7,24.6,15.1,-3.7,24.6,15.6,-3.3,5.73,2.57,1.4,27.0
2013-09-28 00:54:00,0.0,1.88813,0.00062,386.565,0.097,0.6202,0.0020,139.997,45.000,31917.10644,1.89989,389.517,33.626,45.056,45.000,0.00,0.12,-272.56,-272.63,-24,583,-7,24.6,15.3,-3.5,24.6,15.7,-3.1,5.73,2.51,1.4,26.9
2013-09-28 00:55:00,0.0,1.88739,0.00085,386.441,0.129,0.6149,0.0025,140.004,45.000,31920.66374,1.89903,389.341,33.626,45.056,45.000,0.00,0.12,-272.56,-272.63,-24,583,-7,24.6,15.2,-3.6,24.6,15.6,-3.2,5.73,2.49,1.4,26.8
2013-09-28 00:56:00,0.0,1.88852,0.00045,386.679,0.051,0.6128,0.0012,140.000,45.000,31919.33155,1.90006,389.581,33.637,45.056,45.000,0.00,0.12,-272.56,-272.63,-24,583,-7,24.6,15.1,-3.7,24.6,15.5,-3.3,5.73,2.53,1.4,26.8
2013-09-28 00:57:00,0.0,1.88872,0.00036,386.669,0.041,0.6085,0.0020,140.000,45.000,31918.61102,1.90021,389.555,33.642,45.056,45.000,0.00,0.12,-272.56,-272.62,-24,583,-7,24.6,15.0,-3.8,24.6,15.4,-3.4,5.73,2.58,1.5,26.8
2013-09-28 00:58:00,0.0,1.88894,0.00056,386.722,0.039,0.6065,0.0028,140.007,45.000,31924.13722,1.90057,389.597,33.647,45.056,45.000,0.00,0.12,-272.56,-272.63,-24,583,-7,24.6,14.9,-3.9,24.6,15.3,-3.5,5.73,2.58,1.5,27.0
2013-09-28 00:59:00,0.0,1.88897,0.00038,386.748,0.048,0.6016,0.0014,140.005,45.000,31925.89233,1.90025,389.594,33.670,45.056,45.000,0.00,0.12,-272.56,-272.63,-24,583,-7,24.6,14.8,-3.9,24.6,15.2,-3.6,5.73,2.53,1.5,27.0
2013-09-28 01:00:00,0.0,1.88917,0.00029,386.773,0.062,0.6018,0.0024,139.998,45.000,31923.75257,1.90047,389.629,33.688,45.056,45.000,0.00,0.12,-272.56,-272.62,-24,583,-7,24.6,14.8,-3.9,24.6,15.2,-3.6,5.73,2.49,1.5,26.9
2013-09-28 01:01:00,0.0,1.88969,0.00056,386.731,0.035,0.5973,0.0019,139.996,45.000,31922.75805,1.90106,389.557,33.688,45.056,45.000,0.00,0.12,-272.56,-272.63,-25,583,-7,24.6,14.7,-4.0,24.6,15.0,-3.7,5.73,2.51,1.5,27.0
2013-09-28 01:02:00,0.0,1.88932,0.00033,386.783,0.026,0.5971,0.0010,140.001,45.000,31922.77009,1.90058,389.612,33.688,45.056,45.000,0.00,0.12,-272.56,-272.63,-24,583,-7,24.6,14.7,-4.0,24.6,15.1,-3.7,5.73,2.57,1.5,27.0
2013-09-28 01:03:00,0.0,1.88931,0.00040,386.855,0.068,0.5985,0.0011,140.004,45.000,31925.93588,1.90069,389.679,33.688,45.056,45.000,0.00,0.12,-272.56,-272.63,-24,583,-7,24.6,14.7,-4.0,24.6,15.1,-3.7,5.73,2.59,1.5,27.1
2013-09-28 01:04:00,0.0,1.88923,0.00016,386.951,0.056,0.6012,0.0019,140.003,45.000,31927.32238,1.90058,389.808,33.691,45.056,45.000,0.00,0.12,-272.56,-272.63,-24,583,-7,24.6,14.8,-3.9,24.6,15.2,-3.6,5.73,2.56,1.5,27.1
2013-09-28 01:05:00,0.0,1.88924,0.00028,386.735,0.042,0.6028,0.0018,139.999,45.000,31925.42768,1.90069,389.598,33.689,45.056,45.000,0.00,0.12,-272.56,-272.63,-24,583,-7,24.6,14.8,-3.9,24.6,15.2,-3.6,5.73,2.50,1.5,27.0
2013-09-28 01:06:00,0.0,1.88887,0.00038,386.744,0.036,0.6041,0.0020,140.002,45.000,31927.70003,1.90036,389.606,33.707,45.056,45.000,0.00,0.12,-272.56,-272.63,-24,583,-7,24.7,14.8,-3.9,24.6,15.2,-3.5,5.73,2.49,1.5,27.0
2013-09-28 01:07:00,0.0,1.88904,0.00030,386.764,0.028,0.6048,0.0026,140.000,45.000,31928.65628,1.90047,389.624,33.697,45.056,45.000,0.00,0.12,-272.56,-272.63,-24,583,-7,24.6,14.8,-3.9,24.6,15.2,-3.5,5.73,2.54,1.5,27.4
2013-09-28 01:08:00,0.0,1.88915,0.00036,386.786,0.054,0.6055,0.0017,140.002,45.000,31929.31548,1.90058,389.655,33.697,45.056,45.000,0.00,0.12,-272.56,-272.63,-24,584,-7,24.6,14.9,-3.8,24.6,15.3,-3.5,5.73,2.59,1.5,27.4
2013-09-28 01:09:00,0.0,1.88936,0.00042,386.852,0.036,0.6082,0.0027,140.001,45.000,31928.03637,1.90081,389.733,33.695,45.056,45.000,0.00,0.12,-272.56,-272.62,-24,583,-7,24.7,15.0,-3.7,24.6,15.4,-3.4,5.73,2.57,1.5,27.6
2013-09-28 01:10:00,0.0,1.88924,0.00039,386.805,0.040,0.6120,0.0013,140.001,45.000,31927.95676,1.90099,389.710,33.688,45.056,45.000,0.00,0.12,-272.56,-272.62,-24,583,-7,24.7,15.0,-3.7,24.7,15.4,-3.3,5.73,2.51,1.5,27.5
2013-09-28 01:11:00,0.0,1.88882,0.00034,386.608,0.051,0.6155,0.0023,139.999,45.000,31928.46846,1.90040,389.533,33.682,45.056,45.000,0.00,0.12,-272.56,-272.63,-24,583,-7,24.7,15.1,-3.6,24.6,15.5,-3.3,5.73,2.49,1.5,27.7
2013-09-28 01:12:00,0.0,1.88863,0.00040,386.506,0.044,0.6208,0.0020,140.007,45.000,31934.22995,1.90044,389.452,33.686,45.056,45.000,0.00,0.12,-272.56,-272.63,-24,584,-7,24.6,15.2,-3.5,24.6,15.6,-3.2,5.73,2.54,1.5,27.6
2013-09-28 01:13:00,0.0,1.88866,0.00031,386.451,0.033,0.6237,0.0015,140.001,45.000,31928.80823,1.90047,389.402,33.684,45.056,45.000,0.00,0.12,-272.56,-272.63,-25,583,-7,24.6,15.3,-3.5,24.6,15.7,-3.1,5.73,2.59,1.5,27.7
2013-09-28 01:14:00,0.0,1.88829,0.00058,386.434,0.094,0.6220,0.0023,140.005,45.000,31931.54701,1.90016,389.393,33.679,45.056,45.000,0.00,0.12,-272.56,-272.62,-24,583,-7,24.6,15.3,-3.5,24.6,15.7,-3.1,5.73,2.57,1.5,27.6
2013-09-28 01:15:00,0.0,1.88807,0.00072,386.348,0.090,0.6158,0.0033,140.002,45.000,31929.38071,1.89963,389.255,33.672,45.056,45.000,0.00,0.12,-272.56,-272.63,-24,583,-7,24.6,15.1,-3.6,24.6,15.5,-3.3,5.73,2.51,1.5,27.6
2013-09-28 01:16:00,0.0,1.88841,0.00027,386.500,0.066,0.6160,0.0021,140.005,45.000,31932.26222,1.90012,389.415,33.663,45.056,45.000,0.00,0.12,-272.55,-272.63,-24,584,-7,24.6,15.1,-3.7,24.6,15.5,-3.3,5.73,2.48,1.5,27.6
2013-09-28 01:17:00,0.0,1.88856,0.00062,386.524,0.108,0.6128,0.0020,140.004,45.000,31930.65275,1.90000,389.418,33.651,45.056,45.000,0.00,0.12,-272.55,-272.62,-25,583,-7,24.7,15.1,-3.7,24.6,15.5,-3.3,5.73,2.54,1.5,27.7
2013-09-28 01:18:00,0.0,1.88954,0.00041,386.609,0.039,0.6095,0.0008,140.006,45.000,31930.28557,1.90109,389.505,33.632,45.056,45.001,0.00,0.12,-272.56,-272.63,-24,583,-7,24.7,15.0,-3.7,24.6,15.4,-3.4,5.73,2.59,1.5,27.6
2013-09-28 01:19:00,0.0,1.88907,0.00052,386.580,0.033,0.6141,0.0023,140.007,45.000,31930.71218,1.90076,389.488,33.625,45.056,45.001,0.00,0.12,-272.56,-272.62,-24,583,-7,24.7,15.1,-3.6,24.6,15.5,-3.3,5.73,2.57,1.5,27.6
2013-09-28 01:20:00,0.0,1.88898,0.00035,386.525,0.036,0.6133,0.0016,139.998,45.000,31927.35928,1.90056,389.430,33.625,45.056,45.001,0.00,0.12,-272.55,-272.63,-25,584,-7,24.6,15.1,-3.7,24.6,15.5,-3.3,5.73,2.51,1.5,27.5
2013-09-28 01:21:00,0.0,1.88908,0.00024,386.558,0.061,0.6111,0.0025,140.002,45.000,31926.92620,1.90069,389.451,33.625,45.056,45.000,0.00,0.12,-272.56,-272.63,-25,583,-7,24.6,15.0,-3.8,24.6,15.4,-3.4,5.73,2.48,1.5,27.6
2013-09-28 01:22:00,0.0,1.88928,0.00034,386.618,0.033,0.6072,0.0025,140.007,45.000,31926.53149,1.90071,389.495,33.627,45.056,45.000,0.00,0.12,-272.56,-272.63,-24,583,-7,24.7,14.9,-3.8,24.6,15.3,-3.5,5.73,2.53,1.5,27.5
2013-09-28 01:23:00,0.0,1.88954,0.00023,386.680,0.024,0.6092,0.0019,139.993,45.000,31922.65601,1.90105,389.563,33.625,45.056,45.000,0.00,0.12,-272.56,-272.63,-24,583,-7,24.6,14.9,-3.8,24.6,15.3,-3.5,5.73,2.59,1.5,27.6
2013-09-28 01:24:00,0.0,1.88934,0.00035,386.650,0.030,0.6140,0.0020,140.000,45.000,31925.71706,1.90097,389.561,33.625,45.056,45.000,0.00,0.12,-272.56,-272.63,-24,584,-7,24.7,15.1,-3.7,24.6,15.4,-3.3,5.73,2.58,1.5,27.7
2013-09-28 01:25:00,0.0,1.88935,0.00045,386.685,0.061,0.6083,0.0019,140.003,45.000,31927.68998,1.90091,389.564,33.629,45.056,45.000,0.00,0.12,-272.57,-272.63,-25,583,-7,24.7,14.9,-3.8,24.7,15.3,-3.4,5.73,2.52,1.5,27.8
2013-09-28 01:26:00,0.0,1.88983,0.00031,386.763,0.042,0.6052,0.0016,140.003,45.000,31927.50618,1.90123,389.628,33.641,45.056,45.000,0.00,0.12,-272.56,-272.63,-24,583,-7,24.7,14.9,-3.8,24.6,15.2,-3.5,5.73,2.48,1.5,27.8
2013-09-28 01:27:00,0.0,1.88967,0.00037,386.755,0.037,0.6059,0.0026,140.004,45.000,31927.90478,1.90119,389.624,33.646,45.056,45.000,0.00,0.12,-272.56,-272.63,-24,583,-7,24.7,14.9,-3.8,24.6,15.2,-3.5,5.73,2.52,1.5,27.7
2013-09-28 01:28:00,0.0,1.88997,0.00033,386.809,0.050,0.6115,0.0021,140.004,45.000,31927.47767,1.90153,389.706,33.638,45.056,45.000,0.00,0.12,-272.56,-272.63,-24,584,-7,24.7,15.0,-3.7,24.7,15.4,-3.4,5.73,2.58,1.6,27.7
2013-09-28 01:29:00,0.0,1.88982,0.00013,386.854,0.043,0.6082,0.0018,140.006,45.000,31930.11518,1.90137,389.737,33.637,45.056,45.000,0.00,0.12,-272.56,-272.63,-25,583,-7,24.7,14.9,-3.8,24.7,15.3,-3.4,5.73,2.58,1.6,27.7
2013-09-28 01:30:00,0.0,1.89022,0.00029,386.873,0.045,0.6100,0.0016,140.001,45.000,31928.09699,1.90171,389.761,33.627,45.056,45.000,0.00,0.12,-272.56,-272.63,-24,583,-7,24.6,14.9,-3.8,24.7,15.3,-3.4,5.73,2.52,1.5,27.6
2013-09-28 01:31:00,0.0,1.88997,0.00035,386.866,0.072,0.6062,0.0016,140.004,45.000,31927.46197,1.90152,389.747,33.631,45.056,45.000,0.00,0.12,-272.56,-272.63,-24,583,-7,24.7,14.9,-3.8,24.7,15.2,-3.5,5.73,2.48,1.6,27.6
2013-09-28 01:32:00,0.0,1.89014,0.00038,386.859,0.024,0.6070,0.0020,140.000,45.000,31927.09962,1.90157,389.731,33.626,45.056,45.000,0.00,0.12,-272.56,-272.63,-25,584,-7,24.6,14.9,-3.8,24.7,15.3,-3.5,5.73,2.52,1.6,27.6
2013-09-28 01:33:00,0.0,1.89014,0.00015,386.899,0.023,0.6096,0.0014,140.003,45.000,31927.81091,1.90172,389.785,33.633,45.056,45.000,0.00,0.12,-272.56,-272.63,-25,583,-7,24.7,14.9,-3.8,24.7,15.3,-3.4,5.73,2.58,1.6,27.4
2013-09-28 01:34:00,0.0,1.89083,0.00025,386.988,0.018,0.6052,0.0027,139.999,45.000,31926.26372,1.90224,389.856,33.673,45.056,45.000,0.00,0.12,-272.56,-272.63,-24,583,-7,24.7,14.8,-3.9,24.7,15.2,-3.6,5.73,2.59,1.6,27.4
2013-09-28 01:35:00,0.0,1.89097,0.00018,387.053,0.027,0.6005,0.0010,140.004,45.000,31927.79432,1.90234,389.900,33.695,45.056,45.000,0.00,0.12,-272.56,-272.63,-24,583,-7,24.7,14.7,-4.0,24.7,15.1,-3.6,5.73,2.54,1.6,27.4
2013-09-28 01:36:00,0.0,1.89096,0.00031,387.073,0.074,0.6045,0.0029,140.003,45.000,31929.56696,1.90236,389.941,33.702,45.056,45.000,0.00,0.12,-272.56,-272.63,-25,584,-7,24.7,14.8,-3.9,24.7,15.2,-3.5,5.73,2.49,1.6,27.2
2013-09-28 01:37:00,0.0,1.89125,0.00031,387.047,0.053,0.6095,0.0017,140.000,45.000,31928.58421,1.90281,389.928,33.733,45.056,45.000,0.00,0.12,-272.56,-272.63,-25,583,-7,24.7,14.9,-3.8,24.7,15.3,-3.4,5.73,2.50,1.6,27.2
2013-09-28 01:38:00,0.0,1.89175,0.00046,387.027,0.038,0.6114,0.0020,139.997,45.000,31929.84752,1.90326,389.929,33.750,45.056,45.000,0.00,0.12,-272.56,-272.63,-24,583,-7,24.7,14.9,-3.7,24.7,15.3,-3.4,5.73,2.55,1.6,27.2
2013-09-28 01:39:00,0.0,1.89183,0.00022,386.931,0.040,0.6105,0.0010,139.998,45.000,31929.27010,1.90348,389.836,33.750,45.056,45.000,0.00,0.12,-272.56,-272.63,-24,583,-7,24.7,14.9,-3.8,24.7,15.3,-3.4,5.73,2.59,1.6,27.2
2013-09-28 01:40:00,0.0,1.89215,0.00022,387.040,0.053,0.6083,0.0020,139.999,45.000,31928.80675,1.90364,389.919,33.776,45.055,45.000,0.00,0.12,-272.56,-272.62,-24,584,-7,24.7,14.9,-3.8,24.7,15.3,-3.4,5.73,2.57,1.6,27.3
2013-09-28 01:41:00,0.0,1.89208,0.00041,386.905,0.071,0.6087,0.0016,140.000,45.000,31931.33088,1.90367,389.801,33.795,45.055,45.000,0.00,0.12,-272.56,-272.63,-25,583,-7,24.7,14.9,-3.8,24.7,15.3,-3.4,5.73,2.52,1.6,27.5
2013-09-28 01:42:00,0.0,1.89242,0.00044,386.939,0.039,0.6081,0.0025,140.001,45.000,31931.00784,1.90379,389.811,33.812,45.055,45.000,0.00,0.12,-272.56,-272.63,-24,583,-7,24.7,14.8,-3.8,24.7,15.2,-3.5,5.73,2.49,1.6,27.3
2013-09-28 01:43:00,0.0,1.89277,0.00034,386.931,0.034,0.6110,0.0025,140.001,45.000,31931.94868,1.90446,389.834,33.813,45.055,45.000,0.00,0.12,-272.56,-272.63,-24,583,-7,24.7,14.9,-3.7,24.7,15.3,-3.4,5.73,2.51,1.6,27.4
2013-09-28 01:44:00,0.0,1.89247,0.00050,386.942,0.071,0.6107,0.0016,140.001,45.000,31933.12920,1.90407,389.827,33.813,45.055,45.000,0.00,0.12,-272.56,-272.63,-24,584,-7,24.7,14.9,-3.7,24.7,15.3,-3.4,5.73,2.56,1.6,27.3
2013-09-28 01:45:00,0.0,1.89227,0.00030,387.041,0.040,0.6101,0.0019,139.994,45.000,31932.66844,1.90382,389.933,33.813,45.056,45.000,0.00,0.12,-272.56,-272.63,-25,584,-7,24.7,14.9,-3.8,24.7,15.3,-3.4,5.73,2.59,1.6,27.3
2013-09-28 01:46:00,0.0,1.89261,0.00020,387.040,0.022,0.6087,0.0020,140.001,45.000,31935.88084,1.90410,389.931,33.816,45.056,45.000,0.00,0.12,-272.56,-272.63,-24,583,-7,24.7,14.9,-3.8,24.7,15.3,-3.4,5.73,2.56,1.6,27.3